Retour au catalogue

FENGYUN 1C DEB

ActifSSO
NORAD 30005·DEBRIS·🇨🇳 China

Lancé May 10, 1999 depuis Taiyuan Satellite Launch Center

Loading…

Prochains Passages (prochaines 24 heures)

TLE

FraisSource: Space-Track

Époque: Sep 14, 2026, 07:56 UTC

1 30005U 99025ME  26257.33058296  .00000885  00000-0  95120-3 0  9992
2 30005  99.3252 208.2017 0345410 115.9234 247.7928 13.52857993966723

Suivez FENGYUN 1C DEB en temps réel avec AllMySat

Download on the App Store